• En España
  • Lista de países
  • Para 7 días
  • Temperatura del agua
  • Mapa Satelital
  • El tiempo en el mapa
  • Informadores
  • user-avatar
    Iniciar sesión

    Tiempo cada hora Koltakovo

    Hoy, 18 Junio, Lunes

    Tiempo Temperatura Precipitaciones Viento Presión Humedad
    00:00 +16°C° 0 mm 1 mps 742 mmHg 82%
    01:00 +15°C° 0 mm 1 mps 742 mmHg 84%
    02:00 +16°C° 0 mm 1 mps 741 mmHg 83%
    03:00 +16°C° 0 mm 1 mps 741 mmHg 83%
    04:00 +16°C° 0 mm 1 mps 741 mmHg 83%
    05:00 +18°C° 0 mm 1 mps 741 mmHg 82%
    06:00 +18°C° 0 mm 2 mps 741 mmHg 79%
    07:00 +19°C° 0 mm 2 mps 741 mmHg 76%
    08:00 +21°C° 0 mm 2 mps 741 mmHg 70%
    09:00 +23°C° 0,1 mm 2 mps 741 mmHg 67%
    10:00 +24°C° 0,1 mm 2 mps 741 mmHg 63%
    11:00 +25°C° 0,1 mm 2 mps 741 mmHg 60%
    12:00 +25°C° 0,5 mm 2 mps 741 mmHg 61%
    13:00 +25°C° 0,5 mm 2 mps 740 mmHg 62%
    14:00 +26°C° 0,5 mm 2 mps 740 mmHg 63%
    15:00 +25°C° 1 mm 2 mps 740 mmHg 68%
    16:00 +25°C° 1 mm 2 mps 740 mmHg 72%
    17:00 +24°C° 1 mm 1 mps 740 mmHg 77%
    18:00 +23°C° 0,2 mm 1 mps 739 mmHg 81%
    19:00 +22°C° 0,2 mm 1 mps 739 mmHg 85%
    20:00 +20°C° 0,2 mm 1 mps 739 mmHg 89%
    21:00 +19°C° 0 mm 1 mps 739 mmHg 90%
    22:00 +18°C° 0 mm 1 mps 739 mmHg 92%
    23:00 +16°C° 0 mm 1 mps 739 mmHg 93%

    Mañana, 19 Junio, Martes

    Tiempo Temperatura Precipitaciones Viento Presión Humedad
    00:00 +16°C° 0 mm 1 mps 739 mmHg 93%
    01:00 +16°C° 0 mm 1 mps 739 mmHg 93%
    02:00 +16°C° 0 mm 1 mps 739 mmHg 92%
    03:00 +16°C° 0 mm 1 mps 739 mmHg 92%
    04:00 +16°C° 0 mm 1 mps 739 mmHg 92%
    05:00 +18°C° 0 mm 1 mps 739 mmHg 91%
    06:00 +18°C° 0 mm 2 mps 739 mmHg 84%
    07:00 +20°C° 0 mm 2 mps 739 mmHg 77%
    08:00 +23°C° 0 mm 2 mps 739 mmHg 70%
    09:00 +23°C° 0,5 mm 2 mps 739 mmHg 68%
    10:00 +24°C° 0,5 mm 3 mps 739 mmHg 66%
    11:00 +24°C° 0,5 mm 3 mps 738 mmHg 64%
    12:00 +25°C° 0,2 mm 4 mps 738 mmHg 59%
    13:00 +26°C° 0,2 mm 4 mps 738 mmHg 53%
    14:00 +26°C° 0,2 mm 5 mps 737 mmHg 47%
    15:00 +26°C° 0 mm 4 mps 737 mmHg 48%
    16:00 +25°C° 0 mm 4 mps 737 mmHg 49%
    17:00 +25°C° 0 mm 4 mps 737 mmHg 49%
    18:00 +22°C° 0 mm 4 mps 737 mmHg 57%
    19:00 +20°C° 0 mm 3 mps 736 mmHg 64%
    20:00 +19°C° 0 mm 3 mps 736 mmHg 72%
    21:00 +18°C° 0 mm 3 mps 736 mmHg 75%
    22:00 +17°C° 0 mm 4 mps 736 mmHg 79%
    23:00 +15°C° 0 mm 4 mps 737 mmHg 83%

    Pasado mañana, 20 Junio, Miércoles

    Tiempo Temperatura Precipitaciones Viento Presión Humedad
    00:00 +14°C° 0 mm 4 mps 737 mmHg 85%
    01:00 +13°C° 0 mm 3 mps 737 mmHg 86%
    02:00 +12°C° 0 mm 3 mps 737 mmHg 88%
    03:00 +12°C° 0 mm 3 mps 738 mmHg 87%
    04:00 +12°C° 0 mm 3 mps 738 mmHg 86%
    05:00 +12°C° 0 mm 3 mps 738 mmHg 85%
    06:00 +13°C° 0 mm 4 mps 738 mmHg 74%
    07:00 +15°C° 0 mm 4 mps 738 mmHg 64%
    08:00 +17°C° 0 mm 4 mps 739 mmHg 53%
    09:00 +19°C° 0 mm 5 mps 739 mmHg 50%
    10:00 +20°C° 0 mm 5 mps 738 mmHg 46%
    11:00 +21°C° 0 mm 5 mps 738 mmHg 42%
    12:00 +21°C° 0 mm 6 mps 738 mmHg 41%
    13:00 +22°C° 0 mm 6 mps 738 mmHg 41%
    14:00 +23°C° 0 mm 6 mps 738 mmHg 40%
    15:00 +22°C° 0 mm 5 mps 738 mmHg 42%
    16:00 +22°C° 0 mm 5 mps 738 mmHg 43%
    17:00 +21°C° 0 mm 5 mps 738 mmHg 45%
    18:00 +20°C° 0 mm 4 mps 738 mmHg 52%
    19:00 +18°C° 0 mm 3 mps 738 mmHg 60%
    20:00 +17°C° 0 mm 2 mps 738 mmHg 67%
    21:00 +15°C° 0 mm 2 mps 738 mmHg 69%
    22:00 +14°C° 0 mm 2 mps 738 mmHg 72%
    23:00 +13°C° 0 mm 2 mps 739 mmHg 74%

    21 Junio, Jueves

    Tiempo Temperatura Precipitaciones Viento Presión Humedad
    00:00 +12°C° 0 mm 2 mps 739 mmHg 75%
    01:00 +10°C° 0 mm 2 mps 739 mmHg 76%
    02:00 +10°C° 0 mm 2 mps 739 mmHg 77%
    03:00 +10°C° 0 mm 2 mps 739 mmHg 76%
    04:00 +12°C° 0 mm 2 mps 739 mmHg 74%
    05:00 +12°C° 0 mm 2 mps 739 mmHg 72%
    06:00 +13°C° 0 mm 3 mps 739 mmHg 68%
    07:00 +14°C° 0 mm 3 mps 738 mmHg 64%
    08:00 +17°C° 0 mm 3 mps 738 mmHg 60%
    09:00 +17°C° 0 mm 3 mps 738 mmHg 63%
    10:00 +18°C° 0 mm 3 mps 738 mmHg 65%
    11:00 +18°C° 0 mm 3 mps 738 mmHg 68%
    12:00 +18°C° 0,1 mm 3 mps 738 mmHg 71%
    13:00 +19°C° 0,1 mm 3 mps 737 mmHg 74%
    14:00 +19°C° 0,1 mm 3 mps 737 mmHg 76%
    15:00 +20°C° 0,2 mm 3 mps 737 mmHg 74%
    16:00 +21°C° 0,2 mm 3 mps 737 mmHg 72%
    17:00 +22°C° 0,2 mm 3 mps 737 mmHg 70%
    18:00 +21°C° 0,1 mm 2 mps 737 mmHg 75%
    19:00 +20°C° 0,1 mm 2 mps 736 mmHg 81%
    20:00 +19°C° 0,1 mm 2 mps 736 mmHg 87%
    21:00 +18°C° 0 mm 2 mps 736 mmHg 90%
    22:00 +17°C° 0 mm 2 mps 736 mmHg 93%
    23:00 +16°C° 0 mm 2 mps 736 mmHg 96%

    22 Junio, Viernes

    Tiempo Temperatura Precipitaciones Viento Presión Humedad
    00:00 +16°C° 0 mm 2 mps 736 mmHg 95%
    01:00 +16°C° 0 mm 3 mps 735 mmHg 95%
    02:00 +16°C° 0 mm 3 mps 735 mmHg 95%
    03:00 +16°C° 0 mm 3 mps 735 mmHg 92%
    04:00 +17°C° 0 mm 4 mps 734 mmHg 89%
    05:00 +17°C° 0 mm 4 mps 734 mmHg 86%
    06:00 +19°C° 0 mm 5 mps 733 mmHg 78%
    07:00 +21°C° 0 mm 6 mps 733 mmHg 71%
    08:00 +23°C° 0 mm 6 mps 733 mmHg 63%
    09:00 +23°C° 0,3 mm 6 mps 732 mmHg 67%
    10:00 +23°C° 0,3 mm 6 mps 732 mmHg 70%
    11:00 +24°C° 0,3 mm 6 mps 732 mmHg 73%
    12:00 +23°C° 0,8 mm 6 mps 732 mmHg 78%
    13:00 +23°C° 0,8 mm 6 mps 731 mmHg 82%
    14:00 +23°C° 0,8 mm 5 mps 731 mmHg 86%
    15:00 +22°C° 1,3 mm 5 mps 731 mmHg 88%
    16:00 +22°C° 1,3 mm 5 mps 731 mmHg 90%
    17:00 +21°C° 1,3 mm 4 mps 731 mmHg 92%
    18:00 +21°C° 0,8 mm 4 mps 731 mmHg 93%
    19:00 +20°C° 0,8 mm 3 mps 732 mmHg 94%
    20:00 +19°C° 0,8 mm 2 mps 732 mmHg 95%
    21:00 +18°C° 1,1 mm 2 mps 732 mmHg 95%
    22:00 +19°C° 1,1 mm 1 mps 732 mmHg 95%
    23:00 +18°C° 1,1 mm 1 mps 733 mmHg 96%

    23 Junio, Sábado

    Tiempo Temperatura Precipitaciones Viento Presión Humedad
    00:00 +16°C° 1,4 mm 1 mps 733 mmHg 96%
    01:00 +16°C° 1,4 mm 1 mps 733 mmHg 96%
    02:00 +15°C° 1,4 mm 1 mps 733 mmHg 96%
    03:00 +15°C° 1,1 mm 1 mps 733 mmHg 96%
    04:00 +14°C° 1,1 mm 2 mps 733 mmHg 97%
    05:00 +14°C° 1,1 mm 2 mps 733 mmHg 97%
    06:00 +13°C° 1,4 mm 2 mps 733 mmHg 97%
    07:00 +13°C° 1,4 mm 2 mps 734 mmHg 97%
    08:00 +13°C° 1,4 mm 2 mps 734 mmHg 96%
    09:00 +13°C° 0,5 mm 2 mps 734 mmHg 94%
    10:00 +14°C° 0,5 mm 2 mps 734 mmHg 92%
    11:00 +14°C° 0,5 mm 2 mps 735 mmHg 89%
    12:00 +15°C° 0 mm 2 mps 735 mmHg 86%
    13:00 +15°C° 0 mm 2 mps 735 mmHg 82%
    14:00 +16°C° 0 mm 2 mps 735 mmHg 78%
    15:00 +16°C° 0 mm 2 mps 735 mmHg 75%
    16:00 +17°C° 0 mm 2 mps 735 mmHg 72%
    17:00 +17°C° 0 mm 2 mps 736 mmHg 70%
    18:00 +16°C° 0 mm 2 mps 736 mmHg 75%
    19:00 +15°C° 0 mm 2 mps 736 mmHg 80%
    20:00 +14°C° 0 mm 2 mps 736 mmHg 85%
    21:00 +13°C° 0 mm 2 mps 736 mmHg 88%
    22:00 +12°C° 0 mm 2 mps 736 mmHg 91%
    23:00 +10°C° 0 mm 2 mps 736 mmHg 94%
    Mostrar más